Location: Blue Sky Observatory
(43.1153°N, 70.9036°W)
Time: 12:28:05
(UTC-04:00)

Daily predictions for brighter satellites

Satellite Brightness Start Highest point End
(mag) Time Altitude Azimuth Time Altitude Azimuth Time Altitude Azimuth
Nadezhda 1 Rocket 4.2 20:35:47 10° S 20:42:00 59° E 20:48:17 10° NNE
Cosmos 2112 Rocket 4.0 20:38:41 10° SSW 20:43:55 86° ESE 20:49:08 10° NNE
Cosmos 192 4.3 20:42:43 10° SSW 20:47:37 79° ESE 20:52:32 10° NNE
Helios 1A 3.0 20:44:03 10° SSE 20:48:16 88° WSW 20:52:30 10° NNW
Cosmos 1624 Rocket 4.3 20:44:23 10° NNW 20:49:34 54° ENE 20:54:46 10° SE
Cosmos 405 Rocket 3.6 20:48:37 10° SSW 20:52:19 54° WNW 20:56:09 10° N
Cosmos 921 Rocket 4.0 20:52:01 10° N 20:56:09 35° ENE 21:00:11 10° SE
SL-27 R/B 3.1 20:53:52 10° SSW 20:57:29 62° WNW 21:01:07 10° NNE
Cosmos 1441 Rocket 3.1 20:54:47 10° S 20:58:31 89° W 21:02:17 10° N
Cosmos 2154 Rocket 4.2 20:54:09 10° N 21:00:27 62° E 21:06:43 10° SSE
H-2A R/B 3.6 20:57:57 10° ESE 21:01:33 20° ENE 21:05:12 10° NNE
Helios 1B rocket 2.6 20:58:00 10° N 21:02:09 81° WNW 21:06:17 10° SSW
Tiangong 2 1.0 21:00:01 10° W 21:03:13 83° S 21:06:23 10° E
Cosmos 1680 Rocket 4.5 21:00:47 10° SW 21:05:52 53° WNW 21:10:59 10° NNE
Aureole 1 Rocket 3.7 21:05:05 10° SW 21:08:03 40° WNW 21:10:54 10° N
Meteor 1-23 Rocket 4.2 21:02:33 10° S 21:08:07 80° E 21:13:46 10° NNE
Cosmos 967 Rocket 4.5 21:03:03 10° SSW 21:09:13 64° ESE 21:15:25 10° NE
Cosmos 2056 Rocket 3.5 21:04:06 10° NNW 21:09:17 73° ENE 21:14:19 10° SSE
Envisat 3.7 21:06:19 10° S 21:11:15 53° W 21:16:15 10° NNW
Cosmos 839 Rocket 4.5 21:05:00 10° NNW 21:11:30 70° NE 21:18:51 12° SE
Lacrosse 5 rocket 4.2 21:13:53 10° NNW 21:16:44 16° N 21:19:34 10° NE
Cosmos 1892 Rocket 3.9 21:12:32 10° SSE 21:16:45 45° E 21:20:58 10° NNE
Cosmos 2082 Rocket 2.8 21:12:03 10° S 21:17:09 35° ESE 21:22:14 10° NE
Cosmos 2278 3.9 21:12:38 10° NNW 21:18:20 65° ENE 21:23:15 14° SE
Terra 3.8 21:17:04 10° E 21:19:49 15° ENE 21:22:33 10° NNE
Meteor 1-4 Rocket 4.2 21:19:25 10° NNE 21:22:09 20° ENE 21:23:57 15° ESE
Okean 1-7 Rocket 4.1 21:19:18 10° SSW 21:23:43 64° W 21:28:14 10° N
YAOGAN 6 2.9 21:20:21 10° S 21:23:48 61° W 21:27:17 10° NNW
Okean 2 3.4 21:22:21 10° S 21:26:27 84° WNW 21:30:33 10° N
Cosmos 1606 Rocket 3.5 21:22:14 10° N 21:26:34 83° E 21:30:35 12° S
SPOT 5 2.9 21:28:06 16° SE 21:31:19 51° ENE 21:35:36 10° N
Cosmos 1025 Rocket 3.6 21:27:37 10° SSW 21:31:48 57° W 21:36:01 10° N
Meteor 1-15 Rocket 4.4 21:26:26 10° NNW 21:32:00 71° W 21:37:31 10° S
Cosmos 1656 3.8 21:27:32 10° NNW 21:32:57 59° ENE 21:37:02 18° SE
Cosmos 1697 Rocket 3.3 21:28:30 10° NNW 21:33:53 44° ENE 21:37:54 17° SE
MOS 1-B Rocket 4.1 21:29:13 12° SSE 21:34:40 82° ENE 21:41:22 10° NNW
NOSS 8 (H) 4.5 21:31:28 10° SSW 21:34:45 52° ESE 21:38:14 10° NE
Cosmos 1726 Rocket 3.5 21:31:10 10° N 21:35:30 86° E 21:39:06 15° S
Cosmos 2341 Rocket 4.0 21:30:02 10° N 21:36:25 84° E 21:42:28 12° S
SL-24 DEB 4.4 21:33:57 16° SSE 21:37:31 57° E 21:42:05 10° N
Cosmos 2369 3.7 21:33:11 10° NNW 21:38:57 89° WSW 21:43:25 17° SSE
Cosmos 1452 Rocket 3.7 21:35:51 10° NNW 21:41:04 58° ENE 21:44:39 20° SE
SL-08 RB Rocket 3.9 21:38:12 19° SE 21:41:13 55° ENE 21:45:36 10° N
COSMOS 2487 2.4 21:38:36 10° SSW 21:42:09 80° ESE 21:45:45 10° NNE
SL-16 R/B 4.4 21:39:57 10° N 21:43:03 15° NE 21:46:07 10° ENE
Cosmos 2218 Rocket 4.3 21:38:39 10° N 21:44:39 51° ENE 21:48:53 20° SE
MetOp-A 4.2 21:41:22 13° S 21:46:06 80° WSW 21:51:30 10° NNW
ERS-1 Rocket 3.4 21:41:27 10° S 21:46:21 59° W 21:51:20 10° NNW
USA 245 2.0 21:47:12 41° SE 21:47:50 65° ENE 21:50:05 10° N
Cosmos 1833 Rocket 2.7 21:44:31 10° S 21:50:02 61° ESE 21:55:35 10° NNE
SPOT 1/Viking Rocket 3.6 21:49:30 21° SSE 21:52:57 64° ENE 21:58:03 10° N
ISS -1.3 21:50:22 10° WNW 21:53:08 24° NNW 21:55:57 10° NE
Cosmos 2058 Rocket 3.1 21:50:56 10° N 21:55:22 80° W 21:58:30 19° S
ATLAS CENTAUR R/B 3.7 21:58:20 10° NNE 21:59:37 11° NE 22:00:53 10° ENE
Iridium 43 3.3 21:58:16 10° N 22:00:30 81° W 22:00:46 65° SSW
Cosmos 1271 Rocket 4.0 22:00:57 10° NNE 22:04:19 27° ENE 22:05:23 23° E
YAOGAN 11 4.4 22:02:03 19° S 22:04:59 60° WSW 22:09:18 10° NNW
Cosmos 2181 Rocket 4.2 21:59:35 10° SSW 22:05:57 75° W 22:12:14 10° N
USA 229 DEB 4.1 22:00:19 10° NNW 22:07:22 59° NE 22:12:17 21° ESE
USA 229 4.1 22:00:25 10° NNW 22:07:28 58° NE 22:12:23 21° ESE
Cosmos 468 4.5 22:05:25 16° S 22:09:33 65° ESE 22:14:49 10° NNE
Cosmos 1066 Rocket 4.1 22:06:49 15° S 22:11:28 86° E 22:17:10 10° N
Meteor 2-21 4.4 22:07:01 10° N 22:13:04 76° E 22:16:42 26° SSE
H-2A R/B 2.8 22:11:41 28° ESE 22:13:31 43° ENE 22:17:48 10° N
Cosmos 1544 4.3 22:11:29 10° NNE 22:14:36 26° ENE 22:15:06 25° E
Cosmos 1812 Rocket 4.0 22:10:22 10° N 22:14:44 49° ENE 22:16:19 33° SE
Meteor 2-21 Rocket 4.5 22:11:53 10° N 22:17:55 67° E 22:21:10 28° SSE
Cosmos 158 Rocket 4.2 22:19:00 28° S 22:21:38 54° ESE 22:26:53 10° NNE
Cosmos 864 Rocket 4.5 22:15:20 10° N 22:21:40 82° E 22:25:17 27° SSE
Cosmos 1980 Rocket 2.3 22:17:30 10° NNW 22:23:09 65° ENE 22:25:49 31° SE
Cosmos 1626 Rocket 3.4 22:21:47 30° S 22:23:53 86° E 22:28:13 10° N
ARGOS 3.9 22:20:51 18° SSW 22:24:42 49° W 22:29:59 10° NNW
Cosmos 2228 4.3 22:29:23 10° NNW 22:33:18 34° W 22:35:49 18° SW
CZ-4B R/B 4.1 22:29:25 10° NNE 22:34:11 38° E 22:35:16 34° SE
Cosmos 2322 Rocket 3.4 22:29:45 10° N 22:34:49 32° NE 22:37:39 21° E
Cosmos 1953 3.4 22:31:13 10° NNE 22:34:51 30° ENE 22:35:24 29° E
Cosmos 1825 Rocket 4.1 22:37:25 36° ESE 22:37:50 37° E 22:41:49 10° NNE
Tiangong 2 1.5 22:36:46 10° W 22:39:21 52° WSW 22:39:21 52° WSW
H-2A R/B 2.5 22:38:01 26° SSW 22:40:33 52° W 22:45:31 10° NNW
Cosmos 1766 3.2 22:37:51 10° N 22:41:46 80° W 22:42:36 54° S
Landsat 7 4.0 22:40:01 34° S 22:41:59 65° W 22:46:44 10° NNW
Meteor 1-21 4.2 22:41:30 31° S 22:44:20 81° E 22:50:07 10° NNE
PSLV R/B 3.7 22:46:03 47° NNE 22:46:03 47° NNE 22:48:17 10° N
Cosmos 2366 rocket 4.3 22:40:43 10° NNW 22:46:46 61° W 22:50:17 26° SSW
SL-19 R/B 4.4 22:47:43 54° ESE 22:48:21 64° ENE 22:52:01 10° N
CZ-2C R/B 4.4 22:49:05 10° NE 22:52:38 17° E 22:52:59 17° E
Cosmos 1470 4.0 22:53:21 10° NNE 22:56:52 29° ENE 22:56:59 29° ENE
Terra 2.0 22:55:30 42° SSW 22:57:00 66° WSW 23:01:45 10° NNW
Lacrosse 5 rocket 2.9 22:52:52 10° NW 22:57:10 36° NNE 22:59:32 22° E
Meteor 1-4 Rocket 4.4 22:54:24 10° NW 22:57:14 22° W 22:58:16 20° WSW
Cosmos-2242 4.2 22:56:22 10° NNE 23:00:05 27° ENE 23:00:26 27° E
Cosmos 2082 Rocket 3.6 22:55:59 10° WSW 23:01:11 36° WNW 23:06:24 10° N
Cosmos 1707 4.5 23:04:25 21° ENE 23:04:25 21° ENE 23:06:44 10° NE
Meteor 2-8 Rocket 4.4 23:01:41 40° S 23:04:03 74° E 23:10:12 10° NNE
Cosmos 1269 Rocket 4.4 23:01:07 22° SW 23:04:33 63° WNW 23:09:50 10° NNE
Cosmos 1805 3.3 23:06:35 10° NNW 23:10:29 69° W 23:10:42 66° WSW
deb Chang Zheng 4 3.9 23:08:55 10° N 23:13:10 60° WNW 23:14:26 41° SW
Cosmos 1331 Rocket 4.0 23:08:28 10° NNW 23:13:37 67° ENE 23:14:46 51° SE
Cosmos 1110 Rocket 3.9 23:12:14 10° NNW 23:17:31 82° ENE 23:18:39 56° SSE
Cosmos 1697 Rocket 4.1 23:12:55 10° NW 23:17:36 28° WSW 23:19:38 22° SW
Cosmos 1758 3.2 23:13:58 10° NNW 23:17:57 73° W 23:18:04 73° WSW
Cosmos 389 Rocket 2.8 23:15:30 10° NNW 23:18:31 64° NNW 23:18:31 64° NNW
Spot 4 3.9 23:21:37 56° SSW 23:22:30 70° WSW 23:27:20 10° NNW
USA 267 3.6 23:16:29 10° ENE 23:22:35 40° SE 23:22:58 40° SE
Lacrosse 5 1.9 23:25:30 56° ESE 23:25:30 56° ESE 23:30:14 10° NE
SL-16 R/B 2.2 23:22:27 10° NNW 23:28:09 77° ENE 23:29:33 52° SE
Cosmos 1934 Rocket 4.0 23:23:48 10° N 23:30:12 75° E 23:32:02 48° SSE
ISS -1.0 23:28:01 10° NW 23:30:26 19° N 23:32:51 10° NE
NOSS 3-1 (C) 4.0 23:23:38 10° NW 23:31:14 87° NE 23:34:52 38° SE
SeaSat 1 3.7 23:30:49 26° E 23:32:32 34° NE 23:36:58 10° N
CZ-2C R/B 3.9 23:33:01 37° ESE 23:34:29 45° ENE 23:39:53 10° N
DELTA 2 DEB (DPAF) 4.4 23:34:36 55° SW 23:35:01 57° W 23:39:27 10° NNW
ATLAS CENTAUR R/B 1.6 23:35:30 10° NW 23:38:30 57° NNW 23:38:30 57° NNW
CZ-4C R/B 4.2 23:45:30 38° WNW 23:45:30 38° WNW 23:48:26 10° NNW
Cosmos 1758 Rocket 4.0 23:47:43 48° W 23:48:11 50° WNW 23:52:26 10° N
Cosmos 2251 Rocket 3.5 23:47:56 57° SSW 23:49:04 83° WNW 23:54:30 10° NNE
Cosmos 1733 3.6 23:45:22 10° NNW 23:48:41 58° NW 23:48:41 58° NW
H-2A R/B 4.0 23:48:48 19° WSW 23:49:41 20° W 23:53:00 10° NW
Cosmos 1842 Rocket 4.2 23:47:43 10° N 23:52:02 44° ENE 23:52:04 44° E
Cosmos 972 4.4 23:48:25 10° NNW 23:53:51 76° ENE 23:54:28 66° SE
Cosmos 2322 4.5 23:49:02 10° NNW 23:54:27 44° ENE 23:56:13 34° ESE
